STARLINK-4589 (53746 NORAD) Tracking and Keplerian Element Data

This shows tracking and keplerian element data for the satellite.

Feedback or suggestion? Click here.




ElementValue
Catalog53746
NameSTARLINK-4589
Epoch Orbit1199
Epoch Day325.33334491
Epoch Year2022
RAAN270.7213
Inclination53.2164
Eccentricity0.0001886
Argument of Perigee52.5877
Mean Anonmoly26.3292
Mean Motion15.08817732
Decay Rate0.00053131
L11 53746U 22107AY 22325.33334491 .00053131 00000+0 33334-2 0 9991
L22 53746 53.2164 270.7213 0001886 52.5877 26.3292 15.08817732 11993



Live tracking and technical data element details for STARLINK-4589 (NORAD 53746). STARLINK-4589 can be tracked NOW for your location showing map with azimuth and elevation plus other details from your city location.







IsCatalogInMostPopularTable: catalog: 53746, numindb: -1

Insert: records affected: 1


GetName: 53746 STARLINK-4589

Hit Count: inserted at: Thu, 08 Dec 2022 09:55:51 GMT